Regional Weather Roundup
Issued by NWS Jackson, KY

Home | Current Version | Previous Version | Graphics & Text | Print | Product List | Glossary On
Versions: 1 2 3 4 5 6 7 8 9 10 11 12 13 14 15 16 17 18 19 20 21 22 23 24 25 26 27 28 29 30 31 32 33 34 35 36 37 38 39 40 41 42 43 44 45 46 47 48 49 50
000
ASUS43 KJKL 021411
RWRJKL

EAST KENTUCKY HOURLY WEATHER ROUNDUP
NATIONAL WEATHER SERVICE JACKSON KY
1000 AM EDT TUE SEP 02 2014

NOTE: "FAIR" INDICATES FEW OR NO CLOUDS BELOW 12,000 FEET WITH
NO SIGNIFICANT WEATHER AND/OR OBSTRUCTIONS TO VISIBILITY.

* THESE REPORTS ARE NOT UNDER NWS QUALITY CONTROL AND MAY NOT
  REPORT WEATHER SUCH AS PRECIPITATION AND FOG.

KYZ079-080-083-085-087-088-110-112-115-119-120-021500
...EASTERN KENTUCKY...

CITY           SKY/WX    TMP DP  RH WIND       PRES   REMARKS
JACKSON        MOSUNNY   78  70  76 CALM      30.07S
LONDON         MOSUNNY   81  69  67 SW10      30.09R
SOMERSET*      CLOUDY    79  68  69 SW8       30.08S
MONTICELLO*    MOSUNNY   80  72  76 SW12      30.09R
MIDDLESBORO*   MOSUNNY   78  71  76 S6        30.10F
HARLAN APT*    PTSUNNY   72  72 100 MISG      30.12S
HAZARD APT*    SUNNY     81  72  74 S8        30.08
BLACK MTN*       N/A     68  66  94 S2          N/A
PIKEVILLE APT* SUNNY     77  70  78 CALM      30.09S
BIG SANDY*     PTSUNNY   79  70  75 SW6       30.06F
MOREHEAD APT*  MOSUNNY   81  70  69 SW15G21   30.03F
$$

KYZ035-036-041-042-044-050-067-078-099-021500
...CENTRAL KENTUCKY...

CITY           SKY/WX    TMP DP  RH WIND       PRES   REMARKS
MT STERLING*   PTSUNNY   77  70  78 W13G23    30.05R
FLEMING/MASON* LGT RAIN  73  70  88 W7        30.02S
DANVILLE*      PTSUNNY   79  70  73 W9        30.06R
RICHMOND*      PTSUNNY   77  68  73 SW10G16   30.04S
LEXINGTON      CLOUDY    77  70  79 W7        30.05R
FRANKFORT      CLOUDY    72  67  84 W6        30.04R
$$

KYZ091>093-OHZ055-061-077-WVZ005-015-034-035-042-021500
...SOUTHERN OHIO/WEST VIRGINIA...

CITY           SKY/WX    TMP DP  RH WIND       PRES   REMARKS
COVINGTON      LGT RAIN  68  66  93 S12       29.97S
COLUMBUS       LGT RAIN  72  67  84 SE7       29.94F
DAYTON         PTSUNNY   71  66  84 SW8       29.95R
WILMINGTON     CLOUDY    67  64  90 SE14      29.92F
HUNTINGTON     MOSUNNY   79  71  76 S9        30.00F
CHARLESTON     PTSUNNY   79  71  76 SW12      30.03S
BECKLEY        PTSUNNY   76  66  71 SW6       30.15F
BLUEFIELD      MOSUNNY   79  67  66 W9        30.18F
$$

VAZ002-007-008-TNZ017-027-036-066-071-021500
...SOUTHWEST VIRGINIA/EAST TENNESSEE...

CITY           SKY/WX    TMP DP  RH WIND       PRES   REMARKS
WISE*          MOSUNNY   73  64  73 SW14      30.19S
JONESVILLE*      N/A     77  70  78 CALM      30.14S
ABINGDON*      MOSUNNY   77  68  73 SW5       30.16F
BRISTOL        CLOUDY    75  67  76 CALM      30.14S
KNOXVILLE      MOSUNNY   79  72  79 SW6       30.10S
OAK RIDGE      SUNNY     79  70  74 VRB6      30.12S
CROSSVILLE     MOSUNNY   77  69  76 W6        30.15F
NASHVILLE      PTSUNNY   81  71  71 SW8       30.06S
$$

...KEY TO REMARKS...
VSB - VISIBILITY IN MILES
WCI - WIND CHILL INDEX
HX  - HEAT INDEX

$$


USA.gov is the U.S. government's official web portal to all federal, state and local government web resources and services.